Theta_e
295 294 294 295 294 294 294 294 294 294 295 295 293 294 296 296 290 289 297 299 298 302 308 311 312 313 313 313 312 311 312 311 311 310 310 311 311 311 311 312 312 311 310 310 311 311 311 310 310 311 311 311 312 312 311 311 311 310 311 310 309 308 307 307 307 307 308 308 308 308 307 307 307 307 307 307 307 307 307 307 307 306 306 306 306 305 305
293 293 294 295 294 294 294 294 295 296 295 295 295 296 297 296 296 297 299 300 299 302 304 311 314 316 315 314 313 312 310 309 309 309 309 309 309 309 310 311 312 311 311 311 310 310 310 309 310 311 311 311 311 310 310 310 310 310 310 309 308 307 306 306 306 306 306 307 306 307 306 306 306 307 307 307 306 306 306 306 306 306 306 306 306 305 304
291 295 296 296 295 294 292 293 294 295 295 295 296 297 297 298 298 298 298 299 298 309 312 311 317 315 315 312 310 310 310 309 308 307 307 308 309 310 311 311 310 309 309 309 310 310 309 309 309 309 309 310 310 309 309 309 309 309 308 307 306 306 305 305 305 306 306 306 306 305 306 306 306 305 305 306 305 305 305 306 306 306 306 306 306 305 304
289 294 293 295 296 296 294 293 294 294 295 293 295 293 297 296 295 297 298 297 297 309 315 315 315 313 310 309 309 309 309 310 308 307 307 307 308 309 309 309 307 306 308 308 309 308 308 309 309 309 309 309 309 308 308 308 308 308 307 306 305 304 304 305 304 304 305 305 304 304 304 304 305 305 305 305 304 305 305 305 306 307 306 305 305 306 305
287 293 295 294 294 294 290 290 295 296 296 297 297 298 299 299 300 295 292 295 301 309 312 312 311 310 310 310 309 309 309 310 310 309 308 308 309 309 307 305 306 308 309 309 309 309 310 309 309 310 310 308 308 308 308 308 308 307 306 304 304 304 304 304 303 304 304 304 303 303 303 304 305 304 304 304 304 304 304 305 306 305 305 305 305 305 305
287 293 293 294 290 282 285 301 305 300 297 296 295 295 298 300 301 298 301 301 303 312 312 310 310 309 309 311 312 312 310 309 310 311 311 310 308 306 305 306 307 309 310 309 309 309 310 310 310 310 310 308 308 308 307 307 306 305 303 302 303 302 303 302 302 303 303 303 303 303 303 304 304 303 303 303 305 305 305 305 305 305 305 305 304 304 304
287 291 293 286 281 284 301 303 305 304 304 303 300 299 300 301 302 305 303 303 304 313 313 312 313 313 314 315 313 312 312 311 310 309 309 307 304 306 307 308 308 308 308 308 308 308 308 308 308 308 307 307 307 306 306 305 304 303 302 301 302 302 301 301 301 302 302 303 302 302 303 303 304 303 304 304 304 304 304 304 304 303 303 304 304 304 304
291 288 287 279 282 296 301 303 303 305 304 304 301 299 302 304 305 305 300 302 305 311 313 314 315 314 313 314 313 312 312 312 309 308 307 306 307 308 310 309 309 308 307 306 307 307 307 307 307 307 307 307 305 304 305 303 302 301 301 301 301 301 300 300 300 301 301 301 302 302 302 302 303 303 303 304 303 304 304 304 304 304 304 303 303 303 303
285 287 287 286 295 295 300 298 301 300 300 300 297 290 295 304 306 304 302 303 307 311 313 313 312 312 312 308 309 313 312 311 311 311 309 308 309 310 310 309 308 308 307 306 307 307 307 307 306 306 306 305 304 303 302 301 300 300 300 299 299 300 300 300 300 300 300 300 301 301 302 302 302 303 303 303 304 304 303 304 303 303 303 303 303 303 302
291 287 286 286 286 283 290 301 308 308 310 309 306 300 296 305 306 307 305 306 310 312 311 310 310 310 305 301 303 310 312 313 312 312 311 310 310 310 309 308 307 306 307 307 307 306 305 305 306 305 305 304 302 301 299 299 299 298 298 297 297 298 298 299 300 300 300 300 300 301 302 302 302 302 303 303 303 304 303 303 302 303 303 303 303 303 302
289 287 285 284 283 286 299 303 306 309 309 309 308 299 292 305 308 307 307 309 312 311 309 308 308 305 300 300 303 309 312 312 313 310 309 309 309 308 307 306 305 306 306 305 303 303 303 303 304 304 303 302 299 297 297 296 296 296 296 296 298 299 299 300 300 300 300 301 301 301 301 302 302 302 302 302 303 304 303 303 303 303 303 303 303 303 303
288 287 285 284 288 288 299 305 306 307 309 309 305 288 288 307 309 309 309 309 311 310 310 309 307 305 300 302 306 311 312 312 312 310 308 307 307 308 308 308 308 306 304 302 301 302 302 302 303 301 300 299 297 295 295 296 296 296 297 298 298 299 300 300 301 301 301 301 301 301 301 302 302 302 303 303 303 303 303 303 302 302 302 303 302 302 303
288 286 287 289 290 299 305 305 308 308 310 306 291 286 297 309 310 310 310 311 312 311 309 309 304 310 313 314 313 313 313 312 311 311 311 308 308 306 305 303 301 301 301 301 300 301 301 301 300 300 299 298 297 297 298 298 298 298 299 299 299 300 300 300 300 300 301 301 301 301 301 301 301 302 302 302 302 302 302 303 303 302 302 303 302 302 302
288 288 287 287 290 302 307 308 308 309 304 291 291 302 306 309 311 312 312 312 313 312 310 310 311 313 314 314 313 311 308 308 308 307 305 304 304 304 303 302 301 300 300 301 301 301 300 300 301 301 301 299 299 299 299 298 299 300 300 300 300 299 299 299 300 300 301 301 302 301 301 301 301 301 302 302 302 302 302 302 302 302 302 302 301 301 302
291 289 287 286 283 294 309 308 306 308 296 295 305 309 310 310 312 312 313 314 313 313 311 312 313 312 313 312 310 309 308 306 304 303 302 302 302 302 302 301 300 300 300 300 300 300 301 301 301 301 301 299 299 299 298 298 299 300 300 300 300 300 300 299 300 300 300 301 301 301 301 301 300 300 301 302 302 302 302 302 302 301 301 302 301 301 301
287 287 284 286 294 304 309 307 298 304 307 307 309 310 309 311 313 313 313 312 313 313 312 310 310 311 311 311 309 309 308 306 304 303 302 302 302 301 301 301 300 301 300 301 301 301 302 302 302 302 301 299 299 298 298 299 300 300 301 301 300 300 299 299 299 299 300 300 301 302 301 301 301 301 301 301 301 301 301 300 300 300 300 301 300 300 300
292 290 293 304 305 308 310 309 307 309 309 309 309 311 310 310 312 314 312 311 312 312 312 311 310 308 309 310 309 308 308 306 304 302 301 301 301 301 301 300 301 301 301 301 301 301 301 302 302 302 301 299 298 298 299 300 300 300 300 300 300 299 299 299 299 299 300 301 301 302 302 301 301 301 301 301 300 301 301 300 299 299 298 300 300 300 299
304 303 303 306 304 306 308 307 307 307 308 309 310 311 311 311 313 313 312 312 312 312 312 310 309 309 309 309 308 309 308 306 304 302 301 301 301 301 301 302 302 303 302 302 301 301 301 302 302 302 301 300 299 299 300 300 300 300 300 300 299 299 299 299 299 299 299 300 301 301 302 302 302 301 301 301 300 300 299 299 299 299 298 298 298 299 299
296 291 304 304 304 305 306 306 308 309 308 309 310 312 312 312 312 312 313 313 311 310 311 310 308 307 308 308 308 307 306 305 304 301 300 301 301 301 302 303 303 302 301 300 300 300 300 301 301 301 301 301 300 300 300 301 301 301 301 300 299 299 299 299 299 299 299 299 300 301 302 301 302 302 301 301 301 300 301 299 299 298 298 298 298 298 298
294 295 303 303 303 304 305 306 305 307 309 309 310 312 314 313 313 313 313 312 310 310 308 308 307 307 308 308 306 305 305 304 302 301 301 301 300 302 304 304 303 302 302 301 300 300 300 301 301 301 301 300 300 301 301 301 301 301 301 300 299 299 300 300 299 300 299 293 297 300 300 301 300 300 300 300 299 299 300 300 299 298 298 299 297 297 297
302 301 302 302 303 304 304 305 306 308 308 310 309 311 312 313 312 311 310 312 309 309 307 308 308 306 307 308 308 306 305 303 302 300 300 301 301 302 303 304 303 302 301 300 300 300 300 301 301 301 300 300 301 301 301 301 302 301 300 299 300 300 300 300 299 299 299 301 300 300 300 301 301 302 302 301 299 298 299 300 299 300 299 299 299 299 297
295 296 301 304 297 296 305 305 307 307 308 310 310 310 311 311 310 310 309 309 310 309 309 308 307 306 306 308 308 306 303 301 301 301 301 302 302 303 305 304 304 302 301 300 300 299 300 301 301 301 300 300 301 301 302 302 302 300 300 300 300 300 300 300 300 299 300 300 300 299 299 298 298 298 290 288 294 300 298 290 282 283 287 296 297 299 299
294 304 305 307 306 306 307 308 308 308 308 310 309 309 310 310 310 311 310 308 308 307 308 310 308 307 307 307 306 304 302 301 302 303 304 303 304 304 305 304 303 302 301 301 301 300 301 301 301 301 300 300 301 301 302 302 302 301 301 299 299 299 299 299 298 300 300 300 301 301 301 300 299 297 298 297 286 283 289 291 291 288 284 284 287 288 294
305 304 306 306 305 305 304 306 307 307 308 308 308 310 310 310 310 310 310 309 307 305 306 307 308 307 307 307 305 303 303 303 304 305 306 306 305 304 304 303 302 301 301 301 301 301 302 302 301 301 300 301 301 301 302 302 302 302 301 300 299 299 300 299 299 300 300 300 301 300 300 300 300 300 299 297 297 290 288 290 289 289 290 288 288 289 288
303 303 305 305 305 304 305 306 307 308 308 309 309 309 310 310 310 311 310 308 308 306 304 304 305 307 306 305 305 304 303 304 305 305 304 304 303 303 303 303 302 301 301 302 302 303 302 302 301 300 300 300 301 301 302 302 302 301 301 301 301 301 300 299 299 299 299 300 300 300 300 300 300 301 300 299 297 296 295 288 288 289 288 289 288 289 289
304 305 305 305 305 304 306 305 306 307 307 309 309 310 309 307 309 309 309 308 307 306 304 303 303 304 305 304 304 303 303 304 303 303 304 303 303 303 302 302 303 303 303 303 303 303 302 301 301 301 300 301 302 302 303 303 302 302 302 302 302 301 300 299 299 300 300 300 301 300 301 300 300 300 299 300 299 299 298 296 295 290 289 288 289 288 288
304 305 305 304 304 303 305 305 304 306 307 309 309 309 310 310 306 309 308 308 307 306 304 303 303 304 304 304 303 303 303 302 303 303 302 302 303 303 304 304 304 303 302 302 302 301 299 301 300 300 300 301 302 303 303 303 303 302 302 302 302 295 291 295 301 301 301 300 300 300 300 300 298 298 299 298 299 298 298 299 298 298 299 296 290 289 295
304 304 304 302 303 303 303 304 306 306 308 308 308 308 309 308 308 307 306 304 304 304 303 303 302 302 301 302 302 301 301 301 302 302 302 302 304 305 304 304 303 302 301 300 300 300 300 300 300 300 300 302 302 303 303 303 303 302 302 302 301 300 301 300 301 301 301 301 301 300 300 300 301 299 298 299 298 298 297 297 298 298 298 299 299 290 283
303 303 304 304 305 305 305 306 306 306 307 307 308 308 308 306 306 305 303 302 301 301 300 301 301 301 299 299 300 300 299 299 298 300 302 303 303 303 303 302 301 301 300 299 300 300 301 300 300 300 300 302 303 303 303 303 303 302 302 302 301 299 300 301 302 301 301 301 302 301 297 297 298 299 299 300 297 298 298 299 297 298 298 299 300 299 293
303 304 304 304 304 305 304 303 304 305 305 305 306 306 307 306 304 303 302 301 301 300 300 300 299 299 300 299 299 299 298 299 299 299 298 300 302 302 301 300 300 300 300 300 300 300 300 300 300 300 301 303 303 303 303 303 303 303 303 303 302 301 300 301 302 302 301 301 300 293 296 300 300 300 300 299 299 297 298 298 295 295 298 298 293 298 298
303 303 303 303 303 304 303 303 303 303 304 304 305 305 305 305 303 301 301 301 301 300 300 299 299 299 299 300 300 300 300 300 300 300 299 300 300 301 301 300 299 298 299 299 300 300 300 300 300 301 302 303 304 304 304 303 303 303 303 302 302 295 291 293 295 301 300 301 299 299 300 300 301 300 296 299 298 298 298 298 297 297 295 298 298 298 298
302 302 302 302 302 302 302 302 302 302 302 303 303 302 303 302 301 300 300 299 300 300 299 298 298 298 299 299 299 298 298 298 299 299 300 301 301 301 300 300 299 296 301 301 300 300 300 300 300 302 303 304 304 304 304 303 303 302 302 297 301 301 297 292 297 298 299 297 298 298 297 300 300 299 298 296 298 297 297 297 298 297 298 297 297 299 299
300 299 300 300 300 300 300 300 300 300 301 301 302 303 303 303 301 300 299 299 299 299 299 298 299 300 300 299 299 299 298 297 298 298 299 299 299 298 300 301 301 301 301 301 301 301 301 300 302 303 302 303 303 303 303 303 303 302 302 301 302 301 296 295 295 300 298 299 299 300 300 298 299 299 299 299 299 297 299 297 295 296 297 297 298 299 298
301 300 301 302 302 300 299 299 301 300 301 302 302 302 302 301 301 299 299 298 298 298 298 298 300 300 300 299 298 296 295 296 296 296 295 293 293 295 300 301 302 302 302 302 302 301 301 302 303 303 302 302 301 302 302 302 302 301 302 301 301 301 300 299 297 299 300 297 298 300 299 300 299 299 297 297 298 298 298 295 295 295 296 298 299 299 293
303 303 304 303 304 303 303 302 301 301 300 300 300 301 301 301 300 300 299 299 298 298 299 300 299 299 299 298 296 295 294 293 292 291 290 290 291 296 301 301 302 302 302 302 301 301 302 302 304 303 302 302 302 302 302 302 302 302 302 302 300 300 300 301 299 300 299 299 299 300 299 299 298 295 296 299 299 297 298 295 295 295 296 296 299 300 298
303 303 303 303 303 303 303 303 303 303 301 300 300 300 300 300 300 299 298 299 299 298 298 298 298 297 296 296 295 293 291 291 290 289 289 289 290 296 299 299 299 300 299 299 300 302 302 303 294 293 302 302 302 302 303 303 303 302 303 302 300 299 301 299 299 299 298 300 300 299 299 297 296 296 297 297 299 298 298 298 297 296 296 297 296 298 300
304 303 303 303 302 303 303 303 303 302 301 300 300 300 300 299 299 299 300 299 299 299 298 298 297 296 295 295 296 294 291 291 291 290 290 290 294 297 298 298 298 297 297 297 299 302 302 303 293 290 298 301 302 303 302 293 303 302 302 302 302 300 299 300 299 299 299 300 298 299 296 296 299 298 295 298 298 299 299 297 295 297 296 295 295 297 296
303 303 303 302 302 302 302 302 303 303 302 301 301 300 299 299 299 300 299 299 299 300 300 299 298 298 297 297 296 294 292 291 289 289 289 292 296 297 297 297 297 297 297 297 301 302 303 300 289 296 302 301 301 303 301 290 294 301 302 301 301 300 299 299 298 297 299 300 297 299 299 298 297 298 298 298 298 297 297 298 296 297 296 296 296 296 295
303 303 302 302 302 302 301 301 302 302 302 301 300 300 300 299 299 300 299 298 299 299 299 298 297 296 295 295 294 294 293 293 293 292 293 294 296 296 296 298 299 300 300 302 303 302 302 297 303 301 301 301 302 303 297 288 290 301 301 302 302 300 299 299 299 298 298 300 299 298 299 298 298 298 298 298 299 297 295 296 298 295 298 298 298 297 297
302 302 301 301 301 301 301 300 300 300 301 301 300 298 299 298 299 298 298 297 297 297 297 297 296 295 295 294 293 293 294 294 295 295 295 297 297 298 298 299 301 302 302 295 301 302 298 291 298 302 302 302 303 302 302 293 292 299 301 301 302 300 300 299 299 299 299 299 298 294 297 297 298 298 296 297 298 297 297 298 297 298 297 297 298 298 296
302 302 302 301 301 301 300 299 298 299 299 299 299 299 299 299 298 298 297 297 297 297 296 296 295 294 294 294 294 294 295 295 295 296 298 298 298 298 297 297 301 303 303 303 303 301 295 296 300 301 301 302 303 298 303 291 297 301 301 301 300 300 300 300 300 299 298 299 298 298 297 298 297 297 296 297 297 299 298 298 299 297 298 298 299 299 298
303 303 302 301 301 301 300 301 300 299 298 299 298 299 300 300 299 298 298 298 297 296 296 296 293 296 295 295 294 294 294 295 295 297 298 298 298 298 297 299 302 303 297 297 298 296 299 301 300 296 302 303 302 294 293 298 300 301 300 301 301 299 300 299 300 299 300 299 299 299 298 298 298 298 297 298 298 298 299 298 298 299 299 299 298 298 298
303 302 302 301 300 300 300 299 299 299 299 299 299 300 300 300 299 298 298 297 296 296 296 297 295 294 295 295 294 294 294 296 296 297 298 300 302 302 300 300 303 304 290 300 303 302 301 302 302 302 298 300 300 288 290 301 301 301 301 300 299 301 299 300 300 299 300 299 299 299 299 298 298 299 298 298 298 298 298 298 298 299 298 299 299 299 299
303 302 302 301 300 300 300 300 300 300 299 299 300 300 300 300 300 299 298 297 296 296 296 296 296 296 296 295 295 294 294 296 296 298 298 299 300 301 302 301 302 298 290 299 301 301 301 301 302 298 289 289 286 288 298 302 302 301 301 301 300 300 300 300 300 300 300 299 298 299 299 298 298 299 299 298 298 299 298 299 299 299 299 299 299 299 299
303 302 302 302 302 301 300 300 300 300 300 299 298 298 299 299 299 299 298 297 296 296 296 296 296 297 297 297 296 297 297 298 299 299 298 297 297 298 301 297 302 297 295 294 300 301 301 302 298 289 290 287 286 288 300 301 301 300 301 301 301 300 300 300 299 299 299 299 299 299 298 299 299 299 299 298 297 298 298 298 299 299 300 300 300 299 300
303 303 303 296 301 301 301 302 302 302 300 299 299 297 297 297 298 298 298 297 297 297 297 298 299 299 298 298 297 297 297 297 298 300 300 300 298 298 300 297 300 295 292 291 300 300 302 291 288 288 287 286 287 294 299 298 298 299 300 300 300 298 300 299 300 299 299 298 298 299 299 299 299 299 299 300 300 299 298 296 297 299 299 299 299 299 300
303 303 303 303 302 302 301 301 301 301 300 299 297 296 296 297 297 298 299 299 298 298 298 299 299 298 298 298 296 295 294 295 296 299 300 301 300 299 297 294 292 289 291 298 299 300 299 299 290 287 286 286 287 299 299 299 300 300 299 300 300 300 299 300 300 300 300 300 300 297 295 300 299 300 298 297 299 299 298 297 298 298 299 298 299 298 297
303 302 303 303 302 302 302 301 300 299 299 299 299 298 298 299 299 298 299 299 299 299 298 298 298 297 298 297 297 298 298 297 294 296 300 301 302 302 300 302 298 290 291 292 294 294 290 290 288 286 286 286 292 299 300 300 300 301 300 301 300 300 300 301 301 301 301 300 299 300 300 300 300 300 299 299 300 299 300 300 297 298 299 299 300 299 299
303 302 302 302 302 301 301 300 300 298 300 300 299 299 299 299 299 298 299 300 300 300 299 298 297 296 297 297 298 298 298 298 297 296 299 302 302 302 302 296 288 287 293 299 300 301 291 287 287 287 286 287 297 299 300 301 300 299 300 300 300 300 300 300 301 301 301 300 301 300 301 300 301 301 300 300 300 301 300 299 300 298 298 298 298 298 298
303 302 301 301 301 301 301 301 300 301 301 301 300 300 300 299 298 298 298 299 300 297 299 298 298 297 297 297 299 299 299 299 299 300 300 301 302 302 301 301 298 291 292 299 301 300 290 286 287 286 289 296 299 300 301 301 302 302 302 300 302 301 299 299 294 295 299 301 301 301 300 300 301 299 300 300 300 300 300 300 300 296 292 294 297 298 298
302 301 301 300 301 303 303 303 303 302 302 302 302 300 299 298 299 297 298 298 298 296 296 296 297 297 297 297 297 297 299 299 299 297 301 301 302 298 297 300 298 293 296 298 299 300 301 300 299 293 293 297 301 301 301 301 301 302 299 301 303 300 300 300 299 300 301 300 300 301 301 301 301 302 301 300 299 299 300 300 298 300 298 299 298 298 299
303 303 304 303 303 303 304 303 304 304 303 303 302 301 300 300 300 299 299 293 299 298 297 295 294 296 297 296 296 297 297 298 299 300 298 300 302 302 299 295 301 297 297 299 300 301 301 300 295 291 292 299 301 301 295 295 300 301 301 299 298 301 300 300 300 302 301 301 301 300 300 300 301 300 302 301 300 301 299 299 299 299 299 299 299 298 299
Wind_Speed
6 8 9 11 15 16 17 19 17 18 18 19 19 18 15 12 10 7 8 10 12 11 12 14 16 18 17 15 14 14 15 15 16 17 19 20 20 20 20 20 19 20 20 18 18 17 16 16 15 14 12 11 11 11 11 11 11 11 10 9 9 9 9 9 9 8 8 8 8 9 10 10 10 10 10 9 9 9 9 8 7 8 8 9 9 9 10
6 4 4 7 13 15 17 18 19 19 20 21 20 17 15 15 10 11 4 11 13 12 13 12 13 12 11 13 15 16 17 17 18 19 20 19 20 19 20 20 20 18 18 19 18 17 17 16 16 14 12 11 11 11 11 11 11 10 10 9 9 9 9 9 9 9 9 9 9 9 9 10 10 9 9 9 9 9 9 8 8 8 8 8 8 9 10
7 4 4 7 11 11 13 16 19 19 19 19 19 16 16 15 12 12 8 6 9 2 4 10 12 12 11 14 17 19 20 19 18 19 21 19 19 19 20 20 19 17 14 17 17 16 15 14 14 13 12 11 11 12 12 12 11 10 9 9 9 9 9 9 9 9 8 9 9 9 9 9 9 10 10 8 8 9 8 8 8 8 8 9 8 8 9
8 5 6 8 8 10 14 16 17 18 19 20 18 16 16 15 14 14 9 8 8 6 6 10 13 14 16 18 19 18 18 21 21 21 20 20 20 19 20 19 19 18 14 15 16 15 14 13 13 12 12 12 12 12 12 12 11 10 10 9 9 9 9 9 9 9 9 9 9 9 9 9 9 9 9 9 8 8 7 8 8 7 8 8 8 8 7
8 9 5 7 7 8 11 13 16 18 17 14 14 15 16 17 14 13 11 11 5 10 11 13 13 15 16 17 18 18 19 22 22 22 22 20 18 19 17 16 17 15 14 14 14 15 16 13 12 12 12 12 12 12 12 11 11 10 10 10 10 10 9 9 9 9 9 9 9 9 9 9 8 8 8 8 8 7 8 7 8 9 8 8 8 8 8
8 10 6 5 7 11 9 1 2 11 17 19 19 15 15 13 14 12 9 10 9 12 13 14 16 18 18 18 17 17 18 19 21 21 22 19 14 16 17 16 17 15 14 14 14 16 15 13 12 12 11 12 12 12 12 11 11 10 10 9 9 9 9 9 9 9 9 9 9 9 9 8 8 8 7 7 6 6 6 7 8 8 8 9 8 8 8
7 9 7 6 10 9 5 0 4 4 4 2 10 13 11 12 13 5 6 9 8 12 13 15 15 14 13 14 16 17 18 19 19 21 21 18 20 22 21 19 18 18 17 16 17 17 15 14 12 12 12 12 12 12 11 11 10 10 10 10 9 9 9 9 9 9 9 9 9 9 9 8 8 7 6 6 6 6 6 7 7 8 8 9 8 8 8
4 7 7 8 7 5 3 2 1 3 2 3 1 6 9 10 11 12 15 12 11 10 8 8 10 11 12 12 14 17 18 19 20 20 19 20 23 19 17 20 18 17 19 19 19 16 13 13 12 12 12 13 13 12 11 11 10 10 10 9 9 9 9 9 9 9 9 9 9 8 8 8 7 6 6 6 6 6 6 6 7 7 7 8 9 10 9
7 6 9 6 5 2 4 3 7 9 7 9 11 8 12 13 12 13 13 13 10 9 10 11 11 12 12 12 11 16 19 19 19 22 21 22 17 16 17 16 17 18 18 16 15 14 13 12 12 12 12 13 14 13 12 11 11 10 10 10 9 8 8 8 9 9 9 9 9 8 8 7 6 6 6 6 5 5 6 7 7 8 7 8 8 9 10
6 9 9 9 7 7 6 6 4 9 2 2 6 7 9 13 16 15 14 14 12 13 13 13 14 16 14 11 11 16 20 22 21 17 21 18 15 17 18 17 17 17 16 15 14 14 14 13 12 12 13 13 14 13 12 12 11 10 10 9 8 8 8 8 8 9 9 9 9 8 7 7 6 5 5 5 5 5 6 7 7 7 7 7 8 9 11
7 7 9 9 9 5 3 7 5 8 5 6 4 6 12 11 15 15 14 13 14 16 17 18 19 15 12 13 13 18 20 20 20 21 20 18 18 19 21 22 21 19 16 16 15 14 14 14 12 13 14 15 14 14 12 12 11 11 10 9 8 8 9 9 9 9 9 9 9 8 7 7 6 6 5 5 5 5 6 6 6 6 6 7 7 8 10
7 8 9 8 5 3 4 6 7 8 7 5 7 7 7 13 18 17 16 16 17 16 18 21 19 16 11 15 16 19 20 19 21 21 22 21 20 20 20 18 17 16 17 16 15 15 15 14 14 15 15 14 15 13 12 11 12 11 10 9 9 9 9 9 9 9 9 9 8 8 7 6 6 5 5 6 6 6 6 6 6 6 6 7 8 8 8
9 10 8 6 4 3 4 6 9 9 8 6 6 8 2 2 10 16 18 19 19 19 19 18 15 15 4 7 19 21 19 21 21 20 22 22 23 23 20 17 17 15 15 15 15 15 14 15 15 15 14 15 14 14 13 13 12 11 11 10 10 9 9 10 10 10 9 9 9 8 7 6 6 6 6 6 6 6 7 6 6 6 6 6 6 7 7
11 9 10 8 3 4 6 7 10 10 8 5 6 3 3 3 8 11 14 17 19 19 20 15 9 7 6 18 24 24 23 23 20 20 21 21 18 15 18 19 18 16 15 16 16 16 15 15 14 14 14 14 14 14 13 13 13 11 11 11 10 10 10 11 10 10 10 9 8 7 7 7 7 7 6 6 6 6 6 6 6 6 5 5 6 6 6
7 6 9 7 11 3 10 14 9 4 4 1 3 2 3 3 5 10 9 11 13 15 14 12 8 13 16 22 25 24 23 24 24 22 21 20 19 17 17 16 16 17 16 17 17 17 15 15 14 14 15 16 14 14 14 14 12 12 11 11 11 11 11 11 11 11 10 10 8 7 7 8 8 8 7 7 6 6 6 6 6 6 6 5 5 5 6
7 7 8 5 1 7 13 14 3 11 0 4 4 5 3 2 4 8 8 10 12 13 13 13 13 16 20 21 23 23 22 22 21 20 18 18 20 18 19 20 19 18 17 16 16 16 15 14 14 14 15 15 14 15 16 13 12 12 11 11 11 11 11 11 11 11 10 9 8 8 8 8 8 8 7 7 6 5 4 5 5 5 5 5 5 5 6
8 4 2 5 2 5 10 2 5 6 5 2 3 4 3 3 4 6 7 10 12 14 14 13 15 17 18 21 23 25 24 23 22 21 20 19 19 19 19 18 19 18 19 20 17 17 15 16 15 14 14 16 17 17 14 13 13 12 12 12 11 11 11 11 10 10 9 8 8 8 7 7 7 7 7 6 6 6 5 5 5 5 5 5 5 5 6
2 2 2 1 1 3 5 1 3 4 4 2 1 2 1 2 3 5 6 10 12 11 13 15 14 15 18 21 21 23 24 23 21 19 19 18 18 19 19 20 19 18 18 18 19 18 17 17 15 14 14 16 17 16 14 13 13 12 12 12 11 11 11 10 10 10 10 9 8 8 7 7 6 6 6 6 6 6 6 6 5 5 6 5 6 6 6
6 6 5 3 2 2 4 4 3 2 2 1 1 1 1 2 4 6 6 10 12 13 13 15 15 17 18 20 21 22 22 23 22 21 21 19 19 20 21 20 20 18 19 18 18 19 19 16 14 14 15 15 15 15 14 13 13 12 11 11 11 11 11 10 10 9 9 8 7 6 6 6 6 5 5 5 5 5 5 5 5 6 6 6 6 6 6
9 1 4 3 1 2 3 4 5 5 1 2 2 0 1 3 5 6 9 13 14 13 13 16 17 17 19 22 21 20 21 20 20 19 20 20 18 18 21 20 19 19 19 19 19 19 17 15 14 14 14 15 15 14 13 13 12 12 11 11 11 11 11 9 8 8 8 4 5 6 6 6 7 7 7 7 7 6 6 5 5 6 6 6 6 7 7
3 3 3 3 4 6 8 8 5 2 1 2 4 4 5 7 9 11 12 11 13 13 14 17 18 18 18 21 22 22 19 18 18 17 18 19 19 18 19 19 19 18 19 20 19 18 16 15 15 14 15 15 15 15 13 13 12 12 11 11 11 11 10 9 8 9 8 6 6 6 6 6 6 6 6 6 8 8 8 7 7 6 6 6 5 6 7
4 4 3 7 3 1 6 8 8 6 4 3 5 6 6 8 10 9 11 11 13 14 17 17 17 19 17 20 21 22 18 17 18 19 18 19 20 20 19 18 19 19 19 20 19 18 16 15 15 15 16 15 14 14 13 12 12 12 11 10 11 10 9 8 8 7 7 6 7 7 7 8 8 8 7 7 8 5 6 3 3 4 6 6 6 6 5
1 7 4 2 3 2 5 3 6 4 3 3 5 6 7 8 9 10 12 14 14 15 16 16 18 19 19 21 20 19 18 18 18 19 21 21 19 19 19 19 20 19 19 19 19 18 16 15 15 15 15 15 14 14 13 12 12 12 11 10 9 8 8 8 8 7 7 7 6 6 6 7 8 8 7 5 5 6 6 3 1 1 0 2 5 7 7
3 4 3 4 3 4 4 3 4 3 2 2 4 5 7 8 9 10 12 14 15 13 13 13 16 19 20 20 19 20 20 21 21 22 21 21 20 20 19 19 20 20 20 19 19 18 16 15 15 15 15 15 14 13 13 12 12 11 11 9 9 8 8 8 7 7 7 6 6 6 6 5 6 6 7 8 6 4 4 5 5 2 2 0 2 3 5
4 3 3 5 3 4 4 4 4 4 2 2 4 6 7 8 9 10 12 13 14 15 13 12 12 16 20 19 19 19 20 22 22 22 21 19 19 19 19 20 21 20 19 18 17 17 16 15 16 16 15 15 14 13 12 12 12 11 10 9 9 9 8 9 7 6 7 6 6 5 5 5 4 4 5 5 6 7 5 6 7 7 6 4 4 4 2
1 3 3 4 5 5 4 5 5 4 4 3 5 5 7 8 9 10 12 13 13 14 13 12 13 12 16 18 15 17 18 20 20 19 18 18 18 17 19 21 20 18 18 17 17 16 16 17 16 15 15 14 14 13 13 12 11 11 10 9 9 8 9 9 8 7 6 6 6 6 5 4 4 3 3 2 2 3 6 7 5 3 5 7 8 7 5
3 3 3 3 4 4 3 3 3 5 5 5 5 7 8 10 10 10 10 12 14 13 14 13 12 11 9 12 16 16 17 16 15 16 17 18 19 18 18 17 19 19 18 17 16 16 17 17 16 15 15 14 14 13 12 12 11 11 10 9 9 8 7 7 8 6 6 6 5 5 4 4 4 4 4 2 2 1 2 2 1 3 6 6 6 6 3
3 3 5 4 2 2 3 3 5 6 6 6 7 9 10 11 11 12 13 13 13 13 13 15 15 13 11 10 15 17 17 19 15 13 16 17 16 16 18 19 19 18 16 15 16 16 16 16 16 15 15 14 13 13 12 12 11 10 10 9 9 9 9 5 6 6 6 6 5 5 5 4 2 2 2 3 3 2 2 1 2 1 1 3 4 7 6
2 4 3 2 4 6 5 5 5 6 7 7 8 9 11 12 12 13 12 12 13 13 11 12 13 14 14 12 13 16 12 13 15 11 9 14 15 16 17 17 15 14 15 15 16 16 16 16 15 14 14 13 13 12 12 12 10 10 9 9 8 9 9 7 6 6 5 5 5 3 2 3 4 3 3 2 1 1 1 2 1 1 1 1 3 7 6
3 3 4 5 5 5 6 5 6 6 7 8 9 10 11 12 12 11 12 13 13 12 12 12 11 12 15 15 13 14 16 14 12 13 9 9 11 10 11 14 15 15 16 16 16 17 16 15 15 14 14 13 13 13 12 11 10 10 9 9 8 8 8 8 7 6 6 5 5 5 4 4 2 2 3 2 2 1 1 2 2 2 1 2 0 2 2
5 5 6 5 5 5 4 4 5 6 7 8 9 11 12 11 11 12 13 13 12 13 13 13 13 14 12 13 13 12 11 12 12 11 11 10 11 11 11 13 13 13 15 16 18 17 16 15 14 13 13 13 13 13 12 11 10 10 9 8 7 6 7 8 6 6 6 5 6 6 5 4 3 2 1 1 2 2 2 2 3 1 1 1 1 0 1
7 6 6 5 3 4 4 4 5 6 7 8 9 11 11 12 13 13 12 11 12 14 14 14 14 13 11 13 14 12 12 14 13 13 14 13 13 12 12 11 12 12 14 16 16 16 15 14 14 13 14 13 12 12 11 11 10 9 9 9 8 9 5 5 6 5 4 5 5 5 4 3 4 3 4 4 3 3 3 2 2 1 2 1 2 1 1
5 5 4 4 4 4 4 5 6 7 8 9 9 8 9 9 10 11 11 11 11 11 13 13 12 13 13 13 13 12 12 12 13 13 14 14 12 11 11 11 14 15 15 15 16 15 14 14 12 12 13 13 13 13 12 11 10 9 9 8 8 8 9 7 6 6 6 4 5 4 4 4 3 3 3 3 3 2 2 1 1 2 3 3 2 1 2
1 2 1 4 2 4 6 6 7 7 7 7 8 9 9 10 11 12 12 11 12 12 11 13 14 15 14 13 12 13 13 13 10 10 9 9 9 9 13 14 15 15 14 15 16 13 12 12 12 12 13 13 13 12 12 12 10 9 9 8 7 7 8 8 8 7 6 6 5 5 4 3 4 4 3 4 4 4 3 3 3 3 4 4 3 2 7
2 2 3 4 1 3 5 7 8 8 8 8 9 8 8 9 10 11 12 13 13 11 11 13 14 14 14 13 13 14 13 14 12 12 10 10 10 9 13 15 16 15 15 15 15 13 13 13 11 12 13 13 13 12 11 12 10 8 8 8 7 7 7 7 7 7 7 6 6 6 6 5 5 4 4 4 4 3 4 4 4 4 4 5 4 4 5
3 5 6 5 4 5 6 6 8 8 8 8 8 8 8 9 10 11 11 10 10 12 12 11 10 10 11 12 14 12 12 10 11 11 11 10 9 7 11 14 14 14 15 16 14 13 13 12 12 13 11 12 11 12 12 11 10 8 7 7 7 6 6 6 7 6 6 6 6 6 6 5 3 3 4 5 5 5 4 4 5 5 5 5 5 4 2
4 5 5 5 5 5 6 5 7 8 8 8 8 8 9 10 11 10 9 10 12 13 13 13 11 10 11 9 8 7 5 8 9 8 9 8 8 8 11 12 13 14 14 13 14 13 13 10 12 12 11 10 11 12 11 8 9 8 8 8 7 7 7 6 6 6 6 6 6 6 6 5 6 6 6 6 5 5 5 5 5 5 5 4 5 5 5
5 5 6 6 5 5 5 5 6 7 8 9 9 9 10 10 10 10 10 11 12 13 14 14 14 13 11 9 9 9 8 5 6 7 8 8 9 10 11 12 12 13 13 12 12 12 9 11 14 11 12 10 11 10 10 11 8 8 8 8 7 7 7 6 6 6 5 5 6 6 6 7 6 6 6 7 6 6 5 5 5 5 4 4 4 5 5
6 5 5 5 5 5 6 6 5 6 8 10 9 9 9 10 11 11 11 11 11 12 13 11 10 10 10 10 9 9 8 9 8 9 9 10 9 9 9 10 12 12 11 11 13 11 9 11 9 11 11 10 11 10 10 11 9 9 8 8 8 7 7 7 6 6 6 5 5 6 7 7 6 6 6 6 5 5 5 5 5 5 5 5 5 5 6
6 5 6 5 5 5 6 6 6 6 6 7 9 10 9 10 9 9 10 10 9 11 11 12 11 9 10 10 11 10 10 11 11 12 12 12 10 11 10 12 13 13 12 13 14 10 10 11 10 11 10 10 9 9 8 10 9 8 8 7 8 7 7 7 7 6 6 6 5 6 6 6 7 6 6 6 6 6 6 6 7 7 7 7 7 6 6
6 6 6 5 6 5 6 6 7 6 7 7 7 8 9 10 10 10 11 11 11 9 10 11 11 11 12 12 12 11 10 10 11 12 13 12 12 12 12 13 13 12 12 11 11 10 12 11 11 11 10 9 10 8 7 10 9 8 9 8 8 8 7 7 7 7 6 6 6 6 7 7 7 7 7 7 7 7 6 7 7 7 7 7 7 7 7
6 7 7 6 6 6 6 6 7 7 7 7 8 9 9 9 10 10 10 11 10 9 10 11 12 12 11 11 9 9 10 10 11 11 12 12 12 12 13 12 12 10 11 9 11 10 10 10 10 10 10 10 8 9 9 8 8 9 9 9 8 8 8 7 7 7 7 6 6 6 7 7 7 7 7 7 7 7 7 7 7 7 7 7 7 7 7
6 7 7 6 7 7 6 6 7 7 8 8 8 8 9 9 9 10 10 10 10 10 10 9 10 12 11 10 11 10 10 10 11 11 11 11 13 12 12 11 11 9 12 10 9 9 9 11 11 12 10 9 7 12 9 7 9 9 9 9 8 8 8 8 7 8 8 7 7 7 7 7 7 7 7 7 7 7 7 8 8 8 8 8 8 8 8
6 6 7 7 7 7 7 7 7 7 8 8 7 7 8 8 9 11 11 11 10 11 12 11 13 13 13 13 11 9 9 9 10 10 10 11 11 12 13 11 10 10 13 9 10 10 11 11 11 9 12 10 13 12 8 8 8 9 9 9 9 9 9 9 8 8 8 8 7 7 7 8 7 7 7 6 7 7 8 8 7 7 8 8 8 8 8
6 6 7 8 8 7 7 7 8 8 7 7 7 7 7 7 8 10 10 11 11 11 10 11 12 11 11 12 11 11 10 9 10 11 12 12 11 8 3 4 10 10 10 9 10 10 10 10 9 14 11 11 12 11 8 8 9 9 9 9 9 9 9 9 9 8 8 8 8 8 8 8 8 8 8 8 8 8 8 9 9 9 9 9 9 9 9
7 6 7 8 8 7 6 7 7 7 9 9 8 7 6 6 7 8 9 9 9 9 10 12 12 9 8 9 8 8 8 6 6 8 8 9 9 8 6 6 8 9 11 11 10 10 10 9 13 12 12 11 11 8 8 9 8 8 9 9 9 9 9 8 9 9 8 8 8 8 8 8 8 9 8 8 8 8 8 8 9 10 10 10 10 10 10
6 6 7 8 8 8 8 7 7 8 9 8 7 6 6 7 8 7 9 10 11 10 9 9 9 11 12 10 9 8 9 8 5 5 8 10 10 9 11 9 9 12 11 10 10 11 8 9 10 12 12 12 11 8 9 9 8 8 8 8 8 8 8 8 9 8 8 8 8 8 8 8 8 8 8 9 9 10 10 10 10 10 10 10 10 10 10
7 7 6 6 7 7 7 8 8 8 8 8 7 7 7 7 8 7 8 9 10 10 10 8 7 8 9 9 9 9 9 8 6 7 7 10 11 8 8 9 8 11 12 8 7 6 9 12 12 12 11 11 8 9 10 9 9 8 8 8 9 8 8 8 8 8 8 8 8 8 8 9 9 10 10 10 10 10 10 10 7 9 10 10 10 11 11
7 7 7 6 6 7 7 7 7 7 6 6 7 7 8 8 7 7 7 8 9 9 10 9 9 7 5 6 8 7 7 8 9 8 6 5 6 7 7 8 11 13 10 9 10 8 8 10 11 12 12 10 8 10 10 9 9 9 8 8 8 9 9 9 8 8 8 8 8 9 9 9 9 10 10 10 10 10 10 11 11 9 9 9 10 11 10
6 7 7 6 6 6 7 6 6 6 6 7 6 6 7 7 6 6 6 7 6 6 6 7 7 7 6 5 5 6 7 9 11 9 9 9 8 8 8 9 8 10 10 10 11 9 10 11 9 9 9 7 9 10 10 9 9 9 9 9 9 9 9 9 8 9 9 9 9 9 9 10 10 10 10 10 10 10 8 8 7 10 10 9 10 9 9
7 7 6 6 6 6 6 7 7 7 7 7 7 8 8 7 6 7 6 6 6 6 5 5 5 5 5 6 5 5 5 7 9 10 10 10 9 8 8 8 9 9 9 8 9 10 8 8 7 8 8 8 9 10 9 9 9 8 9 9 9 9 10 9 9 9 10 10 10 11 11 11 11 12 10 10 11 10 9 10 8 8 7 7 7 7 7
7 7 6 6 6 6 6 5 4 6 7 7 7 8 8 8 8 8 8 10 8 8 7 7 6 5 5 6 6 6 6 6 7 6 6 7 8 8 7 6 7 9 9 9 10 11 9 9 9 10 10 9 10 9 9 8 8 8 8 8 8 9 9 9 9 9 9 10 10 10 11 11 11 11 11 11 11 10 9 7 7 6 8 6 6 7 7
Wind_Direction
217 207 181 182 196 204 196 205 206 209 209 208 214 218 222 218 223 229 187 188 197 183 183 175 182 181 182 171 161 150 149 145 143 145 149 153 156 158 158 157 154 148 147 149 145 139 137 138 138 139 141 141 134 126 120 115 114 116 118 115 110 106 102 98 95 95 93 88 87 86 83 81 79 76 73 70 69 69 67 67 61 60 61 59 57 55 51
176 177 176 184 202 203 203 204 208 209 210 213 214 215 216 222 227 237 212 199 217 208 197 190 180 168 164 155 153 144 145 150 148 147 150 151 155 159 160 159 154 149 147 142 138 138 142 144 145 145 144 141 133 123 118 114 114 114 114 112 108 106 103 101 101 100 97 94 89 86 84 82 80 78 76 73 70 67 64 63 63 60 61 57 55 53 50
170 149 180 197 210 205 215 213 213 213 217 219 215 214 214 215 225 226 223 208 210 114 193 181 145 152 144 148 158 157 153 150 149 147 151 155 159 160 159 156 150 139 133 139 139 142 144 140 139 144 142 135 130 122 118 115 113 115 113 109 106 104 103 103 103 101 98 94 93 88 86 84 82 80 76 75 71 68 65 61 61 61 56 57 52 49 49
168 174 189 181 202 212 219 216 217 217 214 216 212 215 211 213 212 215 218 217 211 149 158 134 142 148 152 163 164 160 161 159 156 156 158 160 161 160 157 150 138 134 136 141 143 141 140 143 145 143 139 137 132 123 120 119 118 116 113 110 109 108 107 109 107 103 100 98 92 89 87 83 81 79 79 76 73 68 65 63 60 59 57 53 53 50 48
181 171 193 187 192 208 222 223 214 220 226 230 224 221 218 220 216 217 211 214 189 144 154 152 156 168 171 173 172 168 168 169 165 162 162 161 157 154 143 131 137 138 140 146 144 144 152 150 146 144 141 135 128 126 123 121 122 122 121 118 116 114 112 108 105 104 103 99 96 92 87 84 81 80 78 77 73 70 66 63 62 58 54 52 51 49 47
179 165 181 177 205 213 216 157 292 221 221 217 223 220 213 211 207 227 223 222 219 153 159 168 168 183 191 189 183 175 168 168 168 164 163 159 136 125 135 139 137 142 146 150 151 154 154 148 142 138 134 126 121 120 119 118 116 112 111 107 105 107 109 109 109 108 105 102 98 93 89 85 83 81 78 75 75 71 72 67 63 61 56 51 48 47 43
182 162 158 196 214 216 70 342 58 32 44 20 232 230 223 205 202 198 207 220 213 168 180 184 181 179 179 183 174 171 169 164 162 161 161 143 137 145 148 151 151 150 150 151 153 155 149 139 134 132 129 125 120 116 115 113 111 110 109 112 115 115 111 109 111 111 109 106 100 94 88 84 82 80 78 80 74 71 68 62 61 58 53 53 48 45 44
162 171 195 208 216 85 147 109 108 91 91 174 145 246 214 207 203 199 216 216 215 203 185 158 151 163 166 161 172 170 167 165 161 160 158 152 154 157 157 144 143 150 152 153 153 148 136 138 141 138 132 128 121 116 115 113 112 111 112 110 108 109 110 112 111 109 109 106 101 97 94 92 89 85 82 77 76 74 73 72 68 67 62 56 53 49 42
200 199 199 209 77 177 166 172 195 188 186 183 191 213 222 198 201 201 209 210 203 180 152 141 143 142 143 157 171 171 166 166 164 163 159 156 151 136 132 136 146 153 150 143 137 134 137 138 138 135 130 122 118 118 116 114 113 112 110 106 105 107 107 108 108 110 108 103 100 99 98 97 94 90 86 80 74 75 76 70 69 69 68 60 55 52 45
225 204 200 212 224 242 209 197 137 190 246 193 204 233 254 186 192 195 199 194 173 161 148 141 142 138 143 159 176 176 171 171 170 162 154 145 135 140 136 140 144 148 147 133 133 131 132 133 132 130 127 122 120 117 115 114 113 109 105 104 108 109 109 109 108 106 105 104 104 102 101 100 98 95 89 83 78 66 70 73 72 70 71 68 63 57 53
196 218 219 211 223 223 71 129 139 162 165 173 142 193 234 181 181 182 192 184 171 160 147 150 149 156 172 183 177 180 177 176 166 154 146 137 142 142 149 150 148 149 135 130 126 126 130 128 130 127 121 118 115 113 113 112 107 106 106 110 114 113 112 111 108 105 102 102 102 103 102 101 98 96 88 82 82 80 80 82 77 75 67 67 65 61 60
200 214 217 220 223 202 126 124 148 148 168 155 196 212 233 166 171 174 181 178 165 158 157 162 172 176 184 190 186 174 175 170 161 149 146 150 146 143 146 148 145 129 125 124 127 133 131 128 128 125 121 117 115 115 116 113 112 116 121 120 118 115 114 109 104 102 101 101 102 103 104 101 96 93 91 86 78 75 75 75 76 75 72 68 65 62 60
198 220 224 238 208 106 125 135 141 144 156 181 196 210 66 102 178 173 175 176 170 164 166 175 186 199 212 167 152 158 162 162 159 151 152 150 149 146 145 136 131 125 129 131 135 134 130 132 132 129 125 125 125 127 129 126 122 120 121 123 121 118 114 111 108 105 102 103 103 102 102 101 98 94 88 86 83 80 78 73 75 75 74 77 73 69 61
212 202 232 226 247 79 121 137 143 151 157 192 216 75 291 232 192 192 186 176 170 170 174 183 196 174 142 135 147 149 145 140 142 139 140 139 134 128 132 133 132 131 133 135 132 132 135 138 138 135 132 127 127 128 123 119 120 122 124 124 124 123 118 111 106 104 104 103 101 99 103 105 103 94 88 86 83 82 79 80 78 75 75 72 72 70 71
217 208 223 224 232 153 161 135 149 185 229 48 40 14 98 253 181 186 188 179 168 172 169 180 169 131 146 146 148 152 133 135 141 141 138 133 130 129 131 133 136 135 137 137 136 138 143 144 141 136 132 128 126 125 121 122 126 127 128 129 126 120 114 110 107 106 107 107 106 108 106 104 100 97 96 92 90 90 90 88 84 83 75 72 72 70 66
200 203 217 227 23 123 161 161 187 193 108 65 25 353 75 155 183 174 177 178 176 173 177 173 148 135 139 149 153 153 139 134 131 129 128 131 135 135 139 140 141 138 135 137 140 145 145 143 139 137 134 130 129 126 126 128 127 129 131 126 121 117 115 113 113 113 113 112 111 110 107 102 96 93 88 87 84 80 79 78 80 73 72 72 69 64 58
224 216 203 72 49 131 167 220 20 30 56 43 27 8 29 149 155 172 181 179 175 188 176 155 149 141 148 154 158 158 153 143 139 137 139 139 140 139 137 138 141 144 144 144 145 144 143 142 140 139 136 132 132 130 130 133 134 132 128 126 125 123 121 119 119 119 116 114 111 107 108 103 99 94 90 89 87 84 78 72 68 67 66 62 59 56 54
96 12 85 125 151 171 184 207 0 358 16 58 240 311 1 77 138 169 184 167 173 158 153 157 150 147 149 152 153 153 152 149 142 133 132 135 138 140 139 142 147 145 143 143 144 142 142 143 140 139 137 136 135 133 137 138 136 131 131 130 129 126 125 124 124 124 121 115 106 101 99 96 88 84 83 81 81 79 76 71 66 64 57 58 54 50 49
196 214 139 159 129 174 226 232 230 305 321 33 327 270 302 138 154 164 178 164 136 144 148 156 153 141 143 148 152 148 151 152 146 139 139 142 144 144 145 146 146 145 147 145 145 144 142 143 141 141 140 139 136 139 142 141 138 137 133 132 129 127 126 127 126 124 127 122 118 112 106 97 92 89 85 83 78 76 77 72 68 63 59 53 49 46 46
209 130 110 95 133 233 247 236 216 221 173 151 163 331 102 131 143 154 123 121 134 135 138 138 138 142 147 149 153 154 155 148 139 140 141 142 144 149 148 148 149 147 148 146 145 144 142 143 143 143 141 140 142 144 145 143 142 138 136 136 135 133 132 130 134 131 118 122 132 115 111 104 100 93 80 72 66 56 41 36 55 63 56 50 47 42 39
155 95 172 152 179 208 204 201 220 219 204 163 141 149 149 144 139 124 128 141 139 145 139 141 138 142 151 155 157 157 155 140 140 141 142 143 144 145 148 150 150 149 148 145 144 142 141 143 145 145 143 144 145 147 147 147 145 143 139 138 134 135 134 131 125 128 139 146 120 114 107 93 73 57 57 76 87 70 47 42 24 17 35 50 41 49 46
212 239 174 165 221 214 174 189 186 181 175 196 146 146 139 141 138 152 158 156 154 143 144 144 145 145 153 160 162 157 144 141 140 141 141 146 148 151 151 150 149 144 144 144 144 144 143 147 148 145 145 147 148 149 148 148 147 142 143 142 139 138 137 134 136 144 139 129 128 124 118 110 102 89 42 29 13 62 96 84 16 1 349 33 8 359 46
202 44 70 81 8 80 35 92 135 122 147 170 155 143 139 141 145 158 156 156 158 152 150 152 149 149 153 162 156 145 140 143 146 148 148 148 151 149 149 147 146 144 145 145 143 145 147 150 148 146 148 149 150 150 149 150 149 147 149 146 144 139 140 143 143 141 138 139 139 132 130 131 125 122 121 102 66 38 35 81 37 221 289 322 338 348 345
66 33 58 32 358 19 88 88 97 107 127 163 148 137 136 149 152 158 161 154 152 144 148 152 151 150 151 153 151 144 144 147 150 152 153 151 149 147 148 147 146 146 147 148 148 148 150 151 149 149 150 152 153 153 153 153 151 152 152 152 147 147 146 136 144 154 141 135 137 139 140 143 145 145 138 130 133 166 181 165 175 167 127 97 304 291 343
9 17 40 38 57 93 87 104 94 93 106 163 149 145 144 154 159 167 167 156 144 141 144 150 153 150 148 150 146 146 148 151 153 150 148 147 145 147 148 148 149 150 151 151 150 149 151 152 151 151 153 154 156 157 157 156 155 157 157 154 151 150 143 147 155 151 145 146 150 145 142 146 155 172 158 153 144 140 173 190 174 167 172 189 195 202 226
23 82 73 93 93 90 101 110 100 117 117 125 138 151 142 155 148 165 166 154 147 138 129 134 141 148 147 145 142 137 140 147 145 144 145 143 146 147 149 153 152 152 152 151 148 150 151 153 152 154 154 156 158 159 160 159 158 158 159 153 153 151 152 156 157 157 156 156 158 155 158 161 153 146 131 108 90 150 157 156 169 209 208 196 185 176 183
80 92 123 123 96 89 47 351 118 133 145 151 154 146 153 144 145 157 153 147 142 140 136 129 123 130 137 134 132 136 130 124 129 143 142 144 147 147 145 146 149 148 149 147 148 150 150 152 155 156 156 157 158 159 160 158 158 158 158 155 152 104 112 164 156 161 159 157 156 152 149 150 151 160 139 135 149 138 31 46 91 146 152 167 189 205 167
78 33 353 350 19 116 100 86 105 133 150 154 156 159 152 150 152 147 149 137 133 133 135 138 136 130 125 132 135 126 127 133 136 143 143 142 143 140 140 140 139 138 140 143 147 150 154 158 159 158 157 158 158 160 159 158 160 160 158 160 151 157 162 197 174 163 160 163 159 153 166 162 139 111 121 157 179 143 123 166 206 170 168 122 136 164 171
24 346 333 330 35 82 96 110 133 144 146 149 159 158 157 157 156 152 140 134 130 125 128 135 134 126 119 120 123 123 116 124 123 118 123 123 122 131 136 135 129 130 135 144 148 154 159 161 162 162 160 162 162 163 162 162 166 163 163 161 159 157 167 178 179 161 170 163 175 137 124 130 162 156 158 142 100 163 171 141 107 323 297 186 180 150 180
54 69 83 94 110 116 128 142 145 148 149 158 160 162 163 159 158 148 137 137 139 134 129 119 113 123 131 130 133 131 137 135 125 124 123 110 111 111 122 128 134 142 147 153 157 161 163 164 166 166 163 168 167 169 169 169 172 170 169 170 169 164 171 172 175 168 169 178 127 95 182 202 202 171 173 171 122 118 87 98 30 299 270 129 321 275 182
89 88 88 100 118 146 162 144 147 155 158 161 166 163 163 159 146 136 136 137 136 133 131 128 130 129 127 129 136 139 120 112 114 122 124 124 126 133 138 144 145 151 156 160 161 165 168 167 169 166 163 171 172 175 175 174 178 174 177 178 180 121 104 151 186 172 173 179 153 195 183 209 189 180 167 218 185 218 191 174 197 198 273 254 241 224 228
110 107 115 126 134 144 142 147 153 159 161 161 161 166 164 161 145 135 130 133 135 136 133 127 129 131 125 114 107 115 126 128 128 132 135 136 137 142 149 142 139 157 160 161 163 170 170 169 170 163 163 170 172 175 175 177 180 178 181 180 178 171 151 152 196 211 197 176 177 194 200 216 193 190 180 199 217 204 223 229 229 238 266 313 246 207 112
123 136 151 151 147 159 159 163 162 160 160 162 165 160 161 153 128 125 122 119 115 124 131 135 136 132 127 123 124 128 136 134 131 135 139 141 140 142 148 151 157 164 166 166 168 171 171 171 170 158 165 168 170 170 173 175 179 179 177 178 182 168 153 185 228 197 203 209 198 211 192 203 220 208 217 224 234 253 252 240 233 235 240 252 267 234 125
314 335 161 166 165 172 173 162 159 155 150 146 148 150 147 137 128 126 128 133 131 130 136 139 141 137 132 129 133 132 135 135 141 144 137 126 134 147 155 159 165 167 165 166 169 170 171 174 169 161 166 169 170 170 173 176 182 182 175 177 181 169 173 184 196 226 207 206 215 202 235 229 233 238 231 216 227 232 234 246 251 270 274 250 245 227 124
297 284 166 140 132 150 153 158 159 156 154 152 148 137 126 123 134 138 139 142 141 139 132 131 136 139 137 134 136 146 150 155 153 143 136 136 144 155 160 162 165 166 165 168 171 171 172 176 168 166 171 173 174 175 179 182 185 188 179 183 184 185 183 185 195 205 220 212 217 212 210 214 222 224 250 268 244 222 222 233 262 267 263 263 261 247 165
131 130 128 123 112 131 151 153 152 151 150 147 142 126 126 126 126 129 133 130 115 116 123 123 116 118 130 137 146 154 156 150 145 140 138 142 149 158 162 165 162 164 162 167 171 172 174 177 162 166 175 177 181 181 186 188 191 197 188 190 190 200 199 196 201 206 213 223 213 217 218 211 239 242 230 224 230 237 238 227 230 225 243 249 256 258 225
112 124 121 119 120 132 143 148 145 148 145 135 129 127 123 124 127 126 123 123 131 134 133 133 130 132 144 138 122 125 125 139 141 143 143 139 150 159 167 164 166 164 167 168 175 173 181 163 131 150 177 181 185 190 182 180 202 197 194 200 202 201 202 202 204 210 204 213 223 211 210 207 214 217 220 237 239 232 237 241 226 236 253 258 259 248 246
99 105 109 117 121 130 133 138 140 141 140 139 135 131 132 132 134 135 136 139 142 146 146 148 149 142 131 119 127 133 129 120 126 131 132 146 157 162 164 166 169 170 175 177 168 173 174 128 144 167 185 183 184 187 158 166 214 210 192 196 201 203 203 206 198 205 213 203 205 215 204 210 214 221 212 218 226 235 236 238 245 260 265 255 245 246 250
108 101 101 108 119 123 124 125 128 130 136 133 131 132 135 136 136 137 137 141 142 142 144 141 128 124 125 134 137 140 140 144 142 141 144 156 167 166 172 171 178 178 181 171 164 171 119 136 162 175 185 180 182 185 154 169 196 216 202 194 199 207 199 206 207 203 211 215 203 209 210 209 218 223 230 226 233 234 234 248 272 274 263 261 260 252 243
132 126 124 131 131 131 131 128 129 129 134 134 135 132 130 128 131 128 125 125 128 136 130 128 132 136 144 145 144 147 152 153 157 158 160 164 169 172 171 181 185 182 179 151 167 163 134 143 166 185 186 188 188 187 155 162 184 213 211 204 200 207 208 208 212 213 205 209 207 205 228 219 221 228 231 241 242 240 251 238 225 232 242 250 254 256 253
136 141 139 140 138 140 135 134 132 131 127 127 126 130 138 141 135 135 140 141 143 143 141 143 143 149 155 155 155 151 153 155 159 162 164 165 173 177 180 182 180 179 159 167 180 142 144 167 186 186 194 190 197 192 159 152 184 209 214 213 210 209 210 211 216 218 216 212 215 214 214 222 221 224 233 238 243 248 245 245 250 252 253 253 253 254 254
141 150 147 138 138 138 134 133 132 134 134 133 135 144 151 152 151 147 142 142 142 145 150 157 154 155 155 148 135 133 147 155 159 162 167 173 177 180 181 183 168 163 117 108 106 134 161 177 189 203 200 195 183 134 132 157 194 205 217 217 219 216 222 217 217 223 225 226 222 223 219 222 227 229 226 231 239 244 249 255 256 255 255 256 257 259 261
149 151 148 144 138 138 137 140 146 139 134 139 148 150 149 149 144 143 145 147 149 150 153 159 153 150 149 145 142 145 150 158 163 164 172 178 183 183 191 184 176 137 136 161 160 168 173 190 188 205 194 202 151 131 157 189 202 208 217 221 222 224 226 228 227 225 225 225 223 229 230 229 228 234 237 243 246 247 247 248 252 254 256 258 258 254 255
145 146 150 150 147 144 146 148 145 145 145 141 138 137 145 151 152 151 150 151 154 158 165 159 161 166 160 158 154 152 156 163 164 168 172 175 177 182 192 189 173 138 155 169 184 190 191 191 201 148 123 117 128 153 176 203 208 211 217 219 221 221 228 228 229 232 232 230 230 229 227 231 241 246 249 249 251 253 255 258 262 264 265 263 263 264 263
146 138 147 152 145 147 153 151 154 152 142 135 138 141 139 142 150 152 151 153 156 160 162 159 167 168 162 165 167 164 166 170 173 175 178 170 170 163 112 102 130 145 168 181 191 199 197 198 151 131 143 135 149 164 197 213 217 219 217 218 220 223 224 227 230 230 232 236 236 235 238 241 239 242 245 251 257 265 269 268 265 264 265 265 266 267 266
139 140 142 143 146 149 150 149 141 133 137 141 140 138 142 144 147 151 152 147 150 166 173 170 172 165 161 162 151 138 134 139 160 180 184 180 178 167 146 165 161 157 161 183 196 198 200 151 134 149 147 154 152 180 210 215 219 217 218 220 221 222 225 227 226 231 232 235 233 235 234 235 239 244 249 254 256 256 258 263 268 269 269 271 270 272 274
145 141 145 146 138 138 141 139 136 139 141 145 144 145 153 156 157 160 162 164 169 173 173 170 162 159 166 166 158 155 161 162 167 189 191 179 188 184 145 157 129 143 155 187 189 199 192 143 149 153 156 160 174 201 207 213 214 219 216 219 219 221 222 225 227 229 230 231 236 243 252 260 266 265 262 256 255 256 256 256 254 259 263 265 265 265 261
148 148 148 146 137 134 134 141 153 159 161 164 156 148 153 159 163 160 158 164 168 170 171 168 160 157 161 164 165 163 160 160 167 189 201 198 195 170 165 187 161 162 172 192 200 198 134 146 155 163 164 166 189 212 216 218 220 218 223 220 222 223 224 224 226 230 233 236 235 237 239 238 240 244 250 254 259 257 257 256 255 255 259 261 264 266 270
155 150 148 145 144 150 154 161 166 165 166 153 152 146 150 152 153 155 157 159 161 163 166 162 156 157 160 165 162 164 171 173 174 181 174 181 176 175 171 141 141 159 177 195 196 198 149 161 166 172 166 177 202 214 221 223 223 227 226 227 226 225 229 232 234 234 237 236 239 241 246 249 254 255 255 253 252 256 257 257 257 258 259 260 262 264 266
144 147 154 162 165 169 169 172 175 171 156 157 154 146 153 156 157 159 163 168 164 154 150 151 156 162 169 164 170 170 174 186 193 186 178 192 193 194 168 169 162 173 191 199 197 198 153 158 152 156 168 195 211 219 222 226 228 225 230 230 233 237 232 236 244 248 252 255 254 253 252 255 258 258 260 262 263 263 264 264 264 261 255 256 260 265 269
163 174 173 170 178 175 182 187 173 167 163 163 156 151 161 177 167 158 164 160 158 161 158 142 143 152 160 170 177 179 188 192 203 206 197 195 198 189 183 170 156 172 190 208 201 206 175 176 183 170 188 208 213 217 222 225 229 229 225 233 229 233 237 228 230 238 238 241 247 251 254 257 256 257 254 252 245 243 246 249 250 253 251 255 255 255 255
171 177 174 173 177 169 179 178 167 168 165 162 159 162 176 185 169 167 160 167 175 167 165 156 165 171 177 176 181 185 183 189 191 179 186 181 185 189 170 172 168 171 186 203 209 211 203 181 164 173 190 201 213 215 212 213 224 232 226 222 230 234 235 242 240 237 239 234 234 244 248 250 254 255 252 249 246 242 241 241 241 242 245 251 256 257 257